Location: ?
(35.4996°N, 139.3166°E)
Time: 14:09:30
(UTC+00:00)

Terra - Pass Details

Date: 18 April 2024
Orbit: 691 x 696 km, 98.0° (Epoch: 18 May)

Event Time Altitude Azimuth Distance (km) Brightness Sun altitude
Exits shadow 12:26:30 32° 329° (NNW) 1,182 3.4 -33.5°
Drops below altitude 10° 12:29:08 10° 341° (NNW) 2,160 5.1 -33.8°
Sets 12:31:25 0° 344° (NNW) 3,081 6.0 -34.1°
